星链-31093 (STARLINK-31093 )

导读

STARLINK-31093是美国SpaceX公司星链(Starlink)卫星互联网项目中的一员,于2024年1月3日发射入轨。星链项目旨在构建全球覆盖的低轨宽带通信网络,为偏远地区、特殊场景提供高速互联网接入。该卫星属于星链大规模组网中的一颗,运行于近地轨道,依托相控阵天线、激光星间链路等技术,为全球用户提供低延迟、高带宽的网络连接服务,助力星链进一步扩展星座规模与覆盖能力。

Basic Information
目录编号:
58717
目录名称:
STARLINK-31093
国际标识:
2024-002N
轨道中心:
EARTH
卫星名称:
星链-31093
卫星全名:
星链-31093 (STARLINK-31093 )
卫星状态:
在轨 (已飞行975 天)
发射日期:
2024-01-03 UTC
国别 :
美国 (US)
星等 :
--
Orbit Information
数据来源 国际轨道数据
星历时间: 2026-09-03T23:01:02+0800
1天前
查看轨道信息
半长轴: 6840.888km
偏心率: 0.0001214
轨道倾角: 53.160°
近地点辐角 84.195°
升交点赤经 122.358°
平近点角 275.919°
近地点: 461.92km
远地点: 463.582km
周期: 93.849分钟
每日圈数: 15.34384
Detailed Information
固有亮度:
5
最大亮度:
0.3
卫星平台:
Starlink v2.0 mini
覆盖范围:
全球
运营商:
太空探索技术公司
运营商所在国:
美国
制造商(研发单位):
太空探索技术公司
制造商所在国:
美国
使用方式:
暂无
Satellite Introduction
星链(Starlink)计划是由太空探索技术公司(SpaceX)提出的一个巨型低轨卫星互联网星座项目,计划在2019年至2024年间在太空搭建由约1.2万颗卫星组成的“星链”网络,其中1584颗将部署在地球上空550千米处的近地轨道,并从2020年开始工作。该卫星仍在工作。
2D Orbit Map
3D Orbit Map
Orbit Altitude Analysis Chart
Orbit Inclination Analysis Chart
Orbit Comprehensive Analysis Chart
View Comprehensive Chart
Conjunction Data List
Event ID Objects TCA Miss Dist (km) Collision Risk Probability Collision Risk Index (CRI) Action
CDM_260906-104405-871706-281621
2026-09-06T
10:44:28+0000
0.236 km
中距离
5.346989E-4 高风险 0.9
CDM_260905-230105-871706-281621
2026-09-05T
23:01:01+0000
1.089 km
极远距离
1.278232E-5 中风险 0.57
CDM_260905-212705-871706-281621
2026-09-05T
21:27:13+0000
1.452 km
极远距离
4.806163E-6 低风险 0.49
CDM_260907-020905-871706-982721
2026-09-07T
02:09:32+0000
1.592 km
极远距离
3.409365E-6 低风险 0.46
CDM_260906-091005-871706-281621
2026-09-06T
09:10:40+0000
2.530 km
极远距离
1.17583E-6 低风险 0.36
CDM_260830-211805-687405-871723
2026-08-30T
21:18:39+0000
2.892 km
极远距离
1.132382E-6 低风险 0.36